PD2SKZ-12 Weather Reports


time (UTC)temp
F
wind
direction
speed
knots
gust
knots
rain 1hr
in
rain 24hr
in
rain mn
in
humidity
%
barometer
mb
20260507194635 58 0.0 0.0 0.00 0.00 0.00 55 1017.6
20260507194135 58 0.0 1.7 0.00 0.00 0.00 54 1017.6
20260507193635 58 0.0 1.7 0.00 0.00 0.00 54 1017.5
20260507193136 58 285 0.9 3.5 0.00 0.00 0.00 53 1017.5
20260507192635 58 306 0.9 0.9 0.00 0.00 0.00 53 1017.4
20260507192156 58 289 1.7 2.6 0.00 0.00 0.00 52 1017.4
20260507191635 58 0.0 0.0 0.00 0.00 0.00 51 1017.3
20260507191135 58 0.0 0.0 0.00 0.00 0.00 51 1017.4
20260507190636 58 259 0.9 1.7 0.00 0.00 0.00 50 1017.4
20260507190136 59 162 0.9 2.6 0.00 0.00 0.00 50 1017.3
20260507185636 59 0.0 1.7 0.00 0.00 0.00 50 1017.3
20260507185235 59 90 0.0 2.6 0.00 0.00 0.00 50 1017.3
20260507184635 59 240 0.9 3.5 0.00 0.00 0.00 51 1017.3
20260507184135 59 297 0.9 2.6 0.00 0.00 0.00 52 1017.4
20260507183635 59 312 0.9 3.5 0.00 0.00 0.00 55 1017.4
20260507183137 58 0.0 1.7 0.00 0.00 0.00 63 1017.4
20260507182635 58 0.0 1.7 0.00 0.00 0.00 66 1017.4
20260507182135 58 319 2.6 3.5 0.00 0.00 0.00 66 1017.4
20260507181636 58 61 0.9 1.7 0.00 0.00 0.00 66 1017.3
20260507181136 58 325 0.9 2.6 0.00 0.00 0.00 66 1017.3
20260507180635 58 335 0.9 2.6 0.00 0.00 0.00 66 1017.3
20260507180136 58 353 1.7 4.3 0.00 0.00 0.00 66 1017.3
20260507175636 58 316 3.5 3.5 0.00 0.00 0.00 65 1017.3
20260507175136 58 336 3.5 3.5 0.00 0.00 0.00 65 1017.3
20260507174636 58 249 1.7 2.6 0.00 0.00 0.00 65 1017.2
20260507174155 58 306 2.6 3.5 0.00 0.00 0.00 64 1017.2
20260507173635 59 290 0.9 3.5 0.00 0.00 0.00 64 1017.3
20260507173136 59 321 1.7 4.3 0.00 0.00 0.00 64 1017.2
20260507172636 59 274 0.9 3.5 0.00 0.00 0.00 64 1017.2
20260507172135 59 296 2.6 6.1 0.00 0.00 0.00 64 1017.3
20260507171655 59 301 2.6 4.3 0.00 0.00 0.00 63 1017.3
20260507171216 59 318 1.7 3.5 0.00 0.00 0.00 64 1017.3
20260507170636 59 60 1.7 4.3 0.00 0.00 0.00 63 1017.3
20260507170136 59 334 1.7 4.3 0.00 0.00 0.00 62 1017.3
20260507165637 59 345 3.5 4.3 0.00 0.00 0.00 62 1017.3
20260507165136 59 312 4.3 7.8 0.00 0.00 0.00 62 1017.3
20260507164716 59 275 5.2 6.1 0.00 0.00 0.00 62 1017.2
20260507164216 60 294 1.7 3.5 0.00 0.00 0.00 60 1017.3
20260507163655 60 328 2.6 6.1 0.00 0.00 0.00 60 1017.2
20260507163135 60 329 2.6 5.2 0.00 0.00 0.00 60 1017.2
20260507162636 60 290 2.6 4.3 0.00 0.00 0.00 59 1017.2
20260507162136 60 309 2.6 5.2 0.00 0.00 0.00 58 1017.2
20260507161636 61 336 0.9 4.3 0.00 0.00 0.00 57 1017.1
20260507161136 61 344 0.9 2.6 0.00 0.00 0.00 58 1017.2
20260507160655 61 323 0.0 3.5 0.00 0.00 0.00 58 1017.2
20260507160136 60 283 1.7 6.1 0.00 0.00 0.00 58 1017.2
20260507155716 60 332 3.5 4.3 0.00 0.00 0.00 59 1017.2
20260507155136 61 282 0.9 4.3 0.00 0.00 0.00 58 1017.2
20260507154636 60 271 1.7 4.3 0.00 0.00 0.00 60 1017.1
20260507154135 60 313 3.5 5.2 0.00 0.00 0.00 59 1017.1
20260507153636 60 290 2.6 3.5 0.00 0.00 0.00 58 1017.1
20260507153136 60 295 2.6 6.1 0.00 0.00 0.00 59 1017.1
20260507152635 60 357 1.7 5.2 0.00 0.00 0.00 58 1017.2
20260507152137 60 338 1.7 3.5 0.00 0.00 0.00 58 1017.2
20260507151636 60 272 4.3 6.1 0.00 0.00 0.00 57 1017.2
20260507151136 61 313 3.5 5.2 0.00 0.00 0.00 58 1017.2
20260507150656 61 305 2.6 4.3 0.00 0.00 0.00 57 1017.2
20260507150135 62 274 4.3 6.1 0.00 0.00 0.00 55 1017.2
20260507145636 61 302 2.6 5.2 0.00 0.00 0.00 58 1017.2
20260507145136 61 273 1.7 5.2 0.00 0.00 0.00 57 1017.2
20260507144636 60 346 3.5 7.8 0.00 0.00 0.00 58 1017.2
20260507144136 60 295 7.0 9.6 0.00 0.00 0.00 58 1017.2
20260507143636 61 81 2.6 3.5 0.00 0.00 0.00 59 1017.2
20260507143136 61 314 3.5 6.1 0.00 0.00 0.00 56 1017.2
20260507142636 60 54 2.6 5.2 0.00 0.00 0.00 59 1017.2
20260507142136 59 263 5.2 7.8 0.00 0.00 0.00 60 1017.1
20260507141636 59 276 4.3 9.6 0.00 0.00 0.00 60 1017.2
20260507141136 59 310 3.5 6.1 0.00 0.00 0.00 60 1017.2
20260507140636 59 281 3.5 7.0 0.00 0.00 0.00 61 1017.3
20260507140136 60 9 5.2 5.2 0.00 0.00 0.00 60 1017.4
20260507135636 59 346 4.3 5.2 0.00 0.00 0.00 61 1017.4
20260507135156 60 263 2.6 4.3 0.00 0.00 0.00 60 1017.5
20260507134658 60 283 2.6 3.5 0.00 0.00 0.00 59 1017.5
20260507134136 59 303 5.2 10.4 0.00 0.00 0.00 60 1017.5
20260507133636 60 271 4.3 5.2 0.00 0.00 0.00 57 1017.4
20260507133136 59 286 3.5 6.1 0.00 0.00 0.00 59 1017.5
20260507132636 59 333 2.6 6.1 0.00 0.00 0.00 59 1017.4
20260507132136 60 260 0.9 6.1 0.00 0.00 0.00 58 1017.4
20260507131656 60 287 4.3 7.0 0.00 0.00 0.00 57 1017.4
20260507131136 61 280 2.6 5.2 0.00 0.00 0.00 57 1017.4
20260507130636 59 10 4.3 6.1 0.00 0.00 0.00 58 1017.3
20260507130136 59 291 4.3 8.7 0.00 0.00 0.00 58 1017.3
20260507125656 60 321 0.0 7.0 0.00 0.00 0.00 58 1017.3
20260507125136 59 274 5.2 6.1 0.00 0.00 0.00 58 1017.3
20260507124636 59 359 3.5 8.7 0.00 0.00 0.00 57 1017.3
20260507124136 58 284 1.7 7.0 0.00 0.00 0.00 59 1017.2
20260507123636 59 328 1.7 4.3 0.00 0.00 0.00 58 1017.2
20260507123136 59 164 3.5 5.2 0.00 0.00 0.00 58 1017.2
20260507122656 59 278 3.5 7.0 0.00 0.00 0.00 56 1017.3
20260507122136 59 290 1.7 5.2 0.00 0.00 0.00 57 1017.3
20260507121636 59 310 3.5 7.0 0.00 0.00 0.00 56 1017.2
20260507121158 59 326 4.3 6.1 0.00 0.00 0.00 56 1017.3
20260507120636 59 354 3.5 5.2 0.00 0.00 0.00 55 1017.3
20260507120136 61 332 2.6 5.2 0.00 0.00 0.00 41 1017.3
20260507115716 63 316 1.7 2.6 0.00 0.00 0.00 40 1017.3
20260507115136 62 309 0.9 1.7 0.00 0.00 0.00 40 1017.3
20260507114656 63 0.0 0.0 0.00 0.00 0.00 41 1017.2
20260507114136 63 0.0 2.6 0.00 0.00 0.00 41 1017.3
20260507113636 65 147 2.6 3.5 0.00 0.00 0.00 37 1017.3
20260507113136 63 0.0 0.0 0.00 0.00 0.00 40 1017.3
20260507112637 64 129 2.6 4.3 0.00 0.00 0.00 39 1017.3
20260507112136 63 326 0.9 4.3 0.00 0.00 0.00 40 1017.4
20260507111636 63 112 1.7 1.7 0.00 0.00 0.00 39 1017.4
20260507111136 64 0.0 1.7 0.00 0.00 0.00 42 1017.4
20260507110636 61 283 2.6 7.0 0.00 0.00 0.00 43 1017.5
20260507110136 62 12 1.7 1.7 0.00 0.00 0.00 42 1017.5
20260507105636 60 307 1.7 6.1 0.00 0.00 0.00 44 1017.4
20260507105136 61 304 2.6 6.1 0.00 0.00 0.00 41 1017.5
20260507104636 62 129 0.9 0.9 0.00 0.00 0.00 41 1017.5
20260507104136 62 277 0.9 1.7 0.00 0.00 0.00 43 1017.5
20260507103639 62 290 2.6 4.3 0.00 0.00 0.00 43 1017.5
20260507103136 61 0.0 2.6 0.00 0.00 0.00 44 1017.6
20260507102636 60 0.0 3.5 0.00 0.00 0.00 44 1017.6
20260507102136 60 0.0 6.1 0.00 0.00 0.00 44 1017.7
20260507101636 61 313 0.9 1.7 0.00 0.00 0.00 44 1017.6
20260507101136 63 279 2.6 4.3 0.00 0.00 0.00 40 1017.6
20260507100657 61 229 0.9 1.7 0.00 0.00 0.00 43 1017.5
20260507100156 61 354 0.9 4.3 0.00 0.00 0.00 44 1017.6
20260507095636 60 200 0.9 3.5 0.00 0.00 0.00 46 1017.5
20260507095136 59 271 3.5 8.7 0.00 0.00 0.00 45 1017.5
20260507094636 60 271 1.7 3.5 0.00 0.00 0.00 48 1017.5
20260507094136 59 274 0.9 3.5 0.00 0.00 0.00 48 1017.4
20260507093636 60 317 2.6 5.2 0.00 0.00 0.00 48 1017.4
20260507093137 59 326 1.7 3.5 0.00 0.00 0.00 49 1017.4
20260507092636 59 251 4.3 5.2 0.00 0.00 0.00 50 1017.4
20260507092137 59 338 2.6 6.1 0.00 0.00 0.00 49 1017.3
20260507091637 61 277 1.7 3.5 0.00 0.00 0.00 46 1017.3
20260507091136 59 0.0 2.6 0.00 0.00 0.00 51 1017.3
20260507090636 59 284 3.5 5.2 0.00 0.00 0.00 51 1017.3
20260507090159 60 0.0 2.6 0.00 0.00 0.00 51 1017.3
20260507085636 59 312 1.7 4.3 0.00 0.00 0.00 51 1017.3
20260507085136 60 0.0 1.7 0.00 0.00 0.00 51 1017.2
20260507084636 60 0.0 1.7 0.00 0.00 0.00 52 1017.2
20260507084136 58 6 1.7 5.2 0.00 0.00 0.00 53 1017.2
20260507083636 59 289 1.7 2.6 0.00 0.00 0.00 54 1017.2
20260507083136 59 268 0.9 1.7 0.00 0.00 0.00 54 1017.2
20260507082636 58 289 1.7 3.5 0.00 0.00 0.00 56 1017.3
20260507082136 57 284 0.9 3.5 0.00 0.00 0.00 56 1017.3
20260507081636 59 323 3.5 4.3 0.00 0.00 0.00 53 1017.3
20260507081137 58 308 0.0 4.3 0.00 0.00 0.00 56 1017.3
20260507080637 57 318 2.6 4.3 0.00 0.00 0.00 55 1017.3
20260507080136 60 260 1.7 1.7 0.00 0.00 0.00 53 1017.2
20260507075636 57 2 1.7 3.5 0.00 0.00 0.00 57 1017.2
20260507075136 56 185 0.9 3.5 0.00 0.00 0.00 59 1017.2
20260507074637 57 57 0.0 2.6 0.00 0.00 0.00 59 1017.2
20260507074146 57 309 3.5 3.5 0.00 0.00 0.00 59 1017.1
20260507073536 57 0.0 2.6 0.00 0.00 0.00 61 1017.0
20260507073037 55 289 0.9 2.6 0.00 0.00 0.00 64 1017.1
20260507072536 55 305 1.7 4.3 0.00 0.00 0.00 66 1017.0
20260507072037 54 310 3.5 6.1 0.00 0.00 0.00 66 1017.1
20260507071537 55 22 0.9 3.5 0.00 0.00 0.00 66 1017.0
20260507071037 55 295 2.6 3.5 0.00 0.00 0.00 64 1017.0
20260507070537 54 0.0 2.6 0.00 0.00 0.00 67 1017.0
20260507070036 55 0.0 1.7 0.00 0.00 0.00 66 1017.0
20260507065536 54 0.0 3.5 0.00 0.00 0.00 68 1017.0
20260507065007 54 271 1.7 5.2 0.00 0.00 0.00 67 1016.9
20260507064547 53 299 3.5 3.5 0.00 0.00 0.00 70 1017.0
20260507063837 54 103 0.9 2.6 0.00 0.00 0.00 68 1016.9
20260507063337 53 0.0 1.7 0.00 0.00 0.00 70 1016.9
20260507062837 52 315 2.6 4.3 0.00 0.00 0.00 72 1016.9
20260507062337 53 0.0 4.3 0.00 0.00 0.00 71 1016.9
20260507061837 52 209 0.9 1.7 0.00 0.00 0.00 72 1016.9
20260507061356 52 311 3.5 4.3 0.00 0.00 0.00 73 1016.9
20260507060836 52 329 1.7 3.5 0.00 0.00 0.00 73 1016.8
20260507060337 51 273 0.9 1.7 0.00 0.00 0.00 76 1016.8
20260507055837 51 278 0.9 1.7 0.00 0.00 0.00 76 1016.8
20260507055307 51 294 2.6 2.6 0.00 0.00 0.00 75 1016.8
20260507054707 51 0.0 0.9 0.00 0.00 0.00 79 1016.7
20260507054137 50 0.0 0.0 0.00 0.00 0.00 80 1016.6
20260507053637 48 300 0.0 0.9 0.00 0.00 0.00 85 1016.6
20260507053137 47 0.0 0.0 0.00 0.00 0.00 87 1016.6
20260507052718 46 0.0 0.0 0.00 0.00 0.00 89 1016.5
20260507052137 46 0.0 0.0 0.00 0.00 0.00 90 1016.4
20260507051637 45 0.0 0.0 0.00 0.00 0.00 91 1016.4
20260507051137 45 0.0 0.0 0.00 0.00 0.00 91 1016.4
20260507050637 45 0.0 0.0 0.00 0.00 0.00 92 1016.3
20260507050137 44 0.0 0.0 0.00 0.00 0.00 92 1016.2
20260507045607 44 0.0 0.0 0.00 0.00 0.00 92 1016.2
20260507045006 44 0.0 0.0 0.00 0.00 0.00 92 1016.1
20260507044437 44 0.0 0.0 0.00 0.00 0.00 92 1015.9
20260507043937 44 0.0 0.0 0.00 0.00 0.00 92 1015.9
20260507043436 44 0.0 0.0 0.00 0.00 0.00 92 1015.9
20260507042936 43 0.0 0.0 0.00 0.00 0.00 91 1015.9
20260507042437 43 0.0 0.0 0.00 0.00 0.00 91 1015.9
20260507041937 43 0.0 0.0 0.00 0.00 0.00 91 1015.9
20260507041437 43 0.0 0.0 0.00 0.00 0.00 91 1015.9
20260507040957 44 0.0 0.0 0.00 0.00 0.00 91 1015.8
20260507040437 44 0.0 0.0 0.00 0.00 0.00 90 1015.8
20260507035927 44 0.0 0.0 0.00 0.00 0.00 90 1015.7
20260507035307 44 0.0 0.0 0.00 0.00 0.00 90 1015.8
20260507034837 44 0.0 0.0 0.00 0.00 0.00 90 1015.7
20260507034337 44 309 0.9 1.7 0.00 0.00 0.00 90 1015.7
20260507033837 44 309 0.9 1.7 0.00 0.00 0.00 90 1015.7
20260507033356 44 0.0 0.9 0.00 0.00 0.00 89 1015.7
20260507032837 44 0.0 0.0 0.00 0.00 0.00 89 1015.6
20260507032337 45 0.0 0.0 0.00 0.00 0.00 89 1015.5
20260507031838 45 0.0 0.0 0.00 0.00 0.00 89 1015.5
20260507031356 45 0.0 0.0 0.00 0.00 0.00 88 1015.5
20260507030837 45 304 0.0 1.7 0.00 0.00 0.00 88 1015.4
20260507030337 45 304 0.0 1.7 0.00 0.00 0.00 88 1015.4
20260507025857 45 304 1.7 1.7 0.00 0.00 0.00 88 1015.4
20260507025337 45 304 0.9 1.7 0.00 0.00 0.00 88 1015.5
20260507024857 45 304 0.0 0.9 0.00 0.00 0.00 88 1015.4
20260507024307 45 0.0 1.7 0.00 0.00 0.00 88 1015.4
20260507023737 45 0.0 0.0 0.00 0.00 0.00 88 1015.3
20260507023237 45 0.0 0.0 0.00 0.00 0.00 88 1015.3
20260507022737 45 0.0 0.0 0.00 0.00 0.00 87 1015.3
20260507022237 45 304 0.9 1.7 0.00 0.00 0.00 87 1015.3
20260507021738 46 304 1.7 1.7 0.00 0.00 0.00 87 1015.3
20260507021236 46 304 0.9 3.5 0.00 0.00 0.00 87 1015.3
20260507020737 46 313 0.9 1.7 0.00 0.00 0.00 87 1015.2
20260507020237 46 313 0.9 2.6 0.00 0.00 0.00 87 1015.2
20260507015737 46 313 0.9 2.6 0.00 0.00 0.00 87 1015.1
20260507015237 46 320 0.9 1.7 0.00 0.00 0.00 87 1015.1
20260507014737 46 310 1.7 2.6 0.00 0.00 0.00 87 1015.1
20260507014237 46 307 2.6 4.3 0.00 0.00 0.00 87 1015.0
20260507013737 46 321 2.6 2.6 0.00 0.00 0.00 87 1015.0
20260507013237 46 315 2.6 3.5 0.00 0.00 0.00 87 1015.0
20260507012707 46 324 0.9 3.5 0.00 0.00 0.00 87 1015.0
20260507012157 46 311 0.9 2.6 0.00 0.00 0.00 87 1015.0
20260507011637 47 301 1.7 3.5 0.00 0.00 0.00 87 1014.9
20260507011137 47 315 0.9 2.6 0.00 0.00 0.00 87 1014.9
20260507010637 47 298 1.7 2.6 0.00 0.00 0.00 87 1014.9
20260507010137 47 314 1.7 4.3 0.00 0.00 0.00 87 1014.9
20260507005657 47 307 1.7 3.5 0.00 0.00 0.00 87 1014.9
20260507005137 47 315 2.6 3.5 0.00 0.00 0.00 87 1014.9
20260507004637 47 310 1.7 3.5 0.00 0.00 0.00 87 1014.8
20260507004137 47 0.0 1.7 0.00 0.00 0.00 86 1014.9
20260507003637 47 308 1.7 3.5 0.00 0.00 0.00 86 1014.9
20260507003137 47 325 2.6 2.6 0.00 0.00 0.00 86 1014.8
20260507002637 47 270 0.9 3.5 0.00 0.00 0.00 86 1014.8
20260507002137 47 283 0.9 2.6 0.00 0.00 0.00 86 1014.7
20260507001637 47 296 1.7 2.6 0.00 0.00 0.00 86 1014.6
20260507001137 48 312 1.7 3.5 0.00 0.00 0.00 85 1014.6
20260507000637 48 300 0.9 2.6 0.00 0.00 0.00 85 1014.7
20260507000137 48 326 1.7 5.2 0.00 0.00 0.00 85 1014.7
20260506235637 48 322 2.6 3.5 0.00 0.00 0.00 85 1014.7
20260506235138 48 298 1.7 3.5 0.00 0.00 0.00 85 1014.6
20260506234637 48 326 2.6 3.5 0.00 0.00 0.00 84 1014.6
20260506234137 48 296 0.9 2.6 0.00 0.00 0.00 84 1014.6
20260506233637 48 307 1.7 3.5 0.00 0.00 0.00 84 1014.6
20260506233137 48 295 1.7 2.6 0.00 0.00 0.00 83 1014.6
20260506232637 48 300 0.0 2.6 0.00 0.00 0.00 83 1014.4
20260506232137 49 320 1.7 2.6 0.00 0.00 0.00 83 1014.5
20260506231637 49 324 3.5 5.2 0.00 0.00 0.00 82 1014.5
20260506231137 49 328 2.6 3.5 0.00 0.00 0.00 82 1014.5
20260506230637 49 309 2.6 4.3 0.00 0.00 0.00 81 1014.5
20260506230157 49 306 1.7 4.3 0.00 0.00 0.00 81 1014.4
20260506225637 49 300 1.7 4.3 0.00 0.00 0.00 80 1014.5
20260506225157 49 309 2.6 6.1 0.00 0.00 0.00 80 1014.4
20260506224637 49 312 2.6 3.5 0.00 0.00 0.00 79 1014.4
20260506224137 50 296 2.6 4.3 0.00 0.00 0.00 79 1014.4
20260506223737 50 346 1.7 6.1 0.00 0.00 0.00 78 1014.4
20260506223137 50 296 2.6 4.3 0.00 0.00 0.00 78 1014.3
20260506222637 50 313 4.3 7.0 0.00 0.00 0.00 77 1014.3
20260506222138 50 313 1.7 5.2 0.00 0.00 0.00 76 1014.3
20260506221638 50 313 1.7 2.6 0.00 0.00 0.00 76 1014.3
20260506221157 50 322 2.6 5.2 0.00 0.00 0.00 75 1014.3
20260506220637 51 339 2.6 6.1 0.00 0.00 0.00 75 1014.2
20260506220157 51 293 2.6 4.3 0.00 0.00 0.00 74 1014.2
20260506215637 51 326 2.6 2.6 0.00 0.00 0.00 74 1014.1
20260506215137 51 308 3.5 5.2 0.00 0.00 0.00 73 1014.1
20260506214657 51 304 2.6 3.5 0.00 0.00 0.00 72 1014.1
20260506214137 52 332 1.7 4.3 0.00 0.00 0.00 71 1014.0
20260506213637 52 314 2.6 7.0 0.00 0.00 0.00 71 1014.0
20260506213137 52 351 1.7 3.5 0.00 0.00 0.00 70 1014.0
20260506212637 52 312 4.3 6.1 0.00 0.00 0.00 68 1013.9
20260506212137 53 320 4.3 6.1 0.00 0.00 0.00 67 1013.9
20260506211637 53 313 2.6 6.1 0.00 0.00 0.00 66 1013.9
20260506211157 53 318 3.5 7.0 0.00 0.00 0.00 65 1013.8
20260506210637 53 342 3.5 6.1 0.00 0.00 0.00 64 1013.7
20260506210137 53 298 0.9 4.3 0.00 0.00 0.00 64 1013.7
20260506205637 54 275 1.7 6.1 0.00 0.00 0.00 64 1013.7
20260506205137 54 293 2.6 7.0 0.00 0.00 0.00 64 1013.7
20260506204638 54 300 4.3 5.2 0.00 0.00 0.00 64 1013.6
20260506204158 54 313 2.6 2.6 0.00 0.00 0.00 64 1013.5
20260506203637 54 314 3.5 3.5 0.00 0.00 0.00 64 1013.5
20260506203137 54 318 2.6 5.2 0.00 0.00 0.00 64 1013.5
20260506202657 54 325 4.3 7.0 0.00 0.00 0.00 63 1013.4
20260506202137 54 298 5.2 7.0 0.00 0.00 0.00 64 1013.5
20260506201657 54 304 1.7 3.5 0.00 0.00 0.00 64 1013.4
20260506201137 55 297 3.5 4.3 0.00 0.00 0.00 63 1013.4
20260506200637 55 298 3.5 6.1 0.00 0.00 0.00 64 1013.3
20260506200138 55 316 0.9 3.5 0.00 0.00 0.00 63 1013.3
20260506195638 55 296 1.7 4.3 0.00 0.00 0.00 63 1013.2
20260506195137 55 318 5.2 7.0 0.00 0.00 0.00 63 1013.2